Vorticity
12 6 4 4 2 2 3 4 4 4 4 4 5 6 8 10 11 12 12 12 12 12 12 12 11 10 10 11 13 14 13 11 10 10 13 15 15 14 14 13 12 10 9 8 8 7 8 8 8 8 7 7 8 7 7 7 6 7 7 6 7 7 7 7 7 7 6 4 4 4 6 6 6 6 5 6 6 6 7 7 5 6 8 8 6 5 6 6
9 6 4 4 4 5 6 7 8 8 9 10 11 12 13 12 11 11 11 10 10 10 9 8 7 7 7 9 10 11 9 7 5 6 7 9 10 10 11 12 12 13 12 12 11 10 9 8 8 8 7 8 8 7 8 7 7 7 7 8 9 7 5 6 7 7 6 5 5 6 6 6 6 5 5 5 5 6 7 4 3 7 9 7 6 6 6 7
8 8 8 9 10 11 13 13 13 13 13 13 12 11 10 9 8 9 9 9 8 8 8 7 6 6 6 6 6 7 6 5 6 6 6 7 7 7 8 9 10 11 12 10 10 8 7 6 6 6 6 6 6 6 7 6 6 6 6 8 6 5 6 7 6 6 6 6 6 5 6 7 6 5 6 6 5 7 8 4 5 8 7 6 6 6 6 7
9 9 10 11 11 11 11 11 11 11 10 10 9 8 8 9 10 9 9 9 9 9 8 8 8 8 7 6 5 4 5 5 5 5 5 6 6 6 7 8 9 10 10 9 7 7 7 6 6 5 5 6 6 7 7 6 6 7 7 7 5 6 7 6 6 6 6 5 5 5 7 6 5 6 6 6 6 8 7 4 6 7 5 5 5 6 6 6
8 8 9 9 9 9 9 8 8 8 9 10 10 11 11 11 10 9 9 9 9 9 9 9 8 9 8 8 8 7 7 7 5 6 5 6 6 6 7 7 8 9 10 8 6 6 6 6 5 5 7 7 8 8 7 6 6 7 8 7 7 7 6 6 6 6 6 5 5 5 6 5 5 6 6 7 10 9 5 5 7 6 5 5 5 4 5 5
9 9 10 9 9 9 9 9 9 10 11 12 11 10 10 8 8 8 8 7 7 7 7 7 7 7 8 8 9 9 10 9 8 8 7 7 8 8 8 8 8 9 10 8 7 7 5 5 5 6 7 7 7 7 7 6 7 8 8 8 8 7 6 6 7 6 6 6 6 6 6 6 5 6 6 9 11 7 4 7 8 7 6 6 5 4 4 5
10 10 10 10 11 11 12 12 12 12 11 10 9 8 7 6 7 6 5 5 5 6 6 6 7 7 7 8 9 10 11 10 9 9 9 10 10 10 10 9 9 9 9 9 9 8 6 6 6 6 7 7 7 8 8 7 8 8 8 7 7 7 6 6 7 7 6 6 6 6 5 5 5 5 6 8 8 5 5 6 6 6 7 6 5 4 4 5
12 12 12 12 13 13 12 11 10 9 7 7 6 5 5 5 5 5 4 5 5 6 6 7 8 8 9 9 10 11 11 9 9 10 10 11 11 11 12 11 10 10 9 9 8 8 7 7 6 6 7 7 8 8 9 9 9 9 8 7 8 8 7 6 6 6 7 6 5 6 6 6 7 6 6 7 7 6 6 5 4 5 4 5 5 3 4 4
13 13 13 12 11 10 9 8 6 6 5 5 5 4 5 4 4 4 4 4 5 6 7 7 8 8 10 9 10 12 10 10 12 12 12 12 12 12 12 12 11 10 10 9 9 8 7 7 7 8 7 7 8 8 8 8 9 9 8 8 8 8 7 7 6 7 8 7 8 8 8 8 7 6 6 7 6 5 5 5 4 3 3 4 4 3 3 4
11 10 10 9 8 7 6 5 5 4 4 4 4 4 4 4 3 4 4 4 5 6 6 7 8 9 10 10 11 12 11 12 12 10 10 10 10 10 10 10 11 11 10 9 8 7 7 7 7 8 8 9 10 9 9 8 8 7 6 6 6 7 7 7 7 8 8 8 9 9 9 8 6 8 6 4 4 4 4 5 4 3 4 4 4 4 3 5
8 7 7 7 6 5 4 4 3 3 4 4 4 3 3 3 3 3 4 4 4 5 6 8 8 9 10 10 10 11 11 11 8 6 7 7 7 7 8 8 8 9 9 8 8 7 7 7 7 8 10 10 10 9 10 10 8 6 6 5 5 6 6 7 7 8 8 7 7 8 8 6 6 8 3 0 4 5 3 4 4 3 3 3 4 4 3 4
7 6 5 5 4 3 3 3 3 4 4 4 4 4 3 3 3 3 4 4 5 7 8 9 10 9 9 9 9 9 9 7 5 5 6 7 7 7 7 6 6 7 8 8 8 8 8 7 7 8 9 10 10 9 10 9 8 7 7 5 6 7 7 8 9 9 10 9 8 8 4 4 7 4 1 3 6 4 3 3 3 3 3 3 4 4 3 4
6 5 4 3 2 2 2 2 3 4 4 5 5 5 5 4 4 3 4 5 7 9 11 11 10 9 9 9 9 9 8 6 6 7 7 7 8 8 8 7 6 5 6 7 7 7 7 8 9 8 7 8 8 9 9 8 8 7 8 7 6 8 8 7 8 7 9 8 7 6 3 5 7 3 4 7 4 2 3 3 4 5 5 5 5 5 5 4
4 3 2 2 2 2 3 3 4 5 5 5 5 5 5 4 4 3 5 7 9 12 12 11 10 9 9 9 9 9 8 8 8 7 7 8 9 9 11 11 9 7 6 6 7 8 9 10 12 12 10 8 7 8 9 9 9 8 8 7 6 7 7 7 7 6 7 6 5 6 6 6 6 5 6 4 2 3 4 5 7 7 7 7 6 5 5 5
2 2 2 2 3 3 3 4 5 6 6 6 6 6 5 5 4 5 7 9 12 14 12 10 9 9 11 10 9 10 10 10 9 8 8 9 10 10 12 13 13 12 11 10 9 10 10 10 11 12 12 11 11 11 11 10 10 9 7 7 7 8 7 7 8 7 7 6 6 7 7 6 6 5 2 1 3 5 6 7 8 7 7 7 6 5 5 5
3 3 4 3 4 4 4 5 5 5 5 6 6 6 5 5 5 6 8 10 14 14 12 11 9 10 11 10 11 12 11 10 10 12 11 10 10 10 11 12 12 12 12 12 11 10 9 8 7 8 8 8 9 10 10 10 9 8 7 6 7 8 8 7 8 8 6 6 7 6 7 8 5 1 1 4 6 6 7 7 7 7 7 6 6 6 6 7
5 5 5 5 5 5 5 5 4 5 5 6 6 6 6 5 6 8 9 11 13 12 11 9 8 10 10 10 11 11 10 11 12 14 14 11 10 9 9 9 8 8 9 10 10 11 10 9 7 6 6 6 7 7 7 9 7 6 6 5 5 6 6 5 5 6 5 6 6 5 6 6 4 3 6 8 7 7 7 7 7 7 6 5 6 7 7 7
7 6 6 5 5 6 6 5 5 6 6 6 7 6 6 6 7 9 10 11 12 11 10 8 8 10 9 9 11 9 8 9 10 12 13 11 10 8 7 7 7 8 8 9 9 9 10 10 8 6 7 6 6 6 6 7 5 5 6 6 5 5 5 4 3 3 3 4 5 5 5 5 5 7 7 8 7 7 7 7 7 7 6 6 7 8 8 7
6 6 6 5 6 6 6 6 6 7 7 7 6 5 6 7 9 10 10 11 12 11 9 7 9 9 7 8 9 7 7 7 8 10 10 9 9 8 9 9 9 9 9 9 8 8 8 7 8 7 7 6 6 7 7 6 6 7 6 6 7 6 6 5 3 3 4 5 5 5 5 6 7 7 7 8 7 6 6 7 7 7 8 8 7 7 7 7
5 5 5 5 5 5 6 7 7 7 7 6 5 6 7 9 11 10 9 12 12 10 8 8 8 7 6 6 6 6 6 7 7 7 7 8 8 8 9 8 8 9 9 10 9 8 8 6 7 7 6 7 8 9 8 8 8 8 8 7 8 7 7 5 5 6 6 6 5 5 6 6 7 7 7 7 8 7 7 7 7 7 7 7 7 7 7 7
6 6 5 5 5 5 6 7 7 7 7 5 5 7 9 11 12 9 9 10 12 12 9 7 8 6 6 6 5 5 6 7 7 6 6 6 7 7 6 7 7 8 8 9 9 9 8 6 5 6 6 7 8 9 10 10 10 9 9 9 9 9 8 6 6 7 6 6 6 6 7 7 7 7 7 8 8 8 8 7 7 6 6 6 5 5 5 5
6 6 6 6 5 6 6 7 8 7 5 5 6 10 12 13 12 9 10 11 10 10 8 6 8 7 8 8 6 6 7 8 8 7 7 6 6 7 7 8 8 8 8 8 8 9 9 8 7 7 7 8 8 9 9 9 9 9 8 8 8 8 7 7 7 7 7 7 7 7 7 8 8 8 7 8 8 9 8 7 7 6 5 5 4 4 4 4
6 7 7 6 6 6 6 7 7 6 5 7 10 12 14 14 14 12 10 9 7 7 6 5 5 5 8 11 9 9 8 9 9 8 7 6 7 7 8 9 9 9 9 9 9 10 10 10 11 10 10 10 10 10 9 8 8 8 7 7 7 7 7 7 7 7 7 7 8 8 9 9 8 8 7 7 7 7 6 5 5 4 4 4 4 4 5 6
6 7 7 7 7 6 6 7 6 5 6 9 12 14 16 16 17 15 10 7 7 7 6 4 4 5 9 10 10 10 9 9 7 6 6 6 7 8 8 9 9 9 9 9 10 10 11 11 11 11 11 10 9 9 8 8 7 7 7 7 6 6 7 7 7 7 8 8 9 9 10 10 8 8 7 6 5 4 4 4 4 5 5 6 7 8 9 12
6 7 8 8 7 6 6 6 5 5 7 12 15 17 17 16 17 15 10 9 8 6 6 6 6 8 8 8 8 8 8 7 6 6 7 6 6 6 8 9 9 9 9 9 9 9 10 10 10 11 10 10 9 8 8 7 7 7 8 8 8 8 8 8 8 9 9 9 9 8 8 8 6 4 4 4 4 4 4 6 7 7 8 9 10 12 13 14
5 7 9 9 8 6 5 5 5 7 11 15 16 16 16 15 16 12 9 10 10 9 10 9 10 9 7 5 5 6 8 9 9 8 7 5 5 6 7 8 8 10 10 10 10 10 10 10 9 9 9 8 8 8 8 9 9 8 9 9 9 9 9 9 10 9 9 8 7 5 4 6 5 3 4 5 5 6 7 8 8 8 10 12 13 13 13 12
6 7 9 9 9 7 5 5 7 11 15 16 16 16 16 14 13 9 8 11 11 11 11 10 10 8 6 6 7 9 10 10 9 9 7 6 6 7 7 8 8 9 9 9 10 10 9 9 10 9 9 9 9 9 9 9 9 9 9 9 9 9 9 9 8 7 6 4 3 3 3 6 6 6 7 8 9 10 9 9 10 10 12 14 12 12 13 13
7 8 10 10 9 7 5 7 11 14 16 17 17 16 13 11 9 8 9 9 8 9 9 8 8 7 8 10 10 10 9 8 9 9 8 7 7 7 7 8 8 8 8 9 9 9 9 9 9 9 9 9 9 9 9 9 10 9 9 9 8 8 6 6 5 4 4 3 2 3 5 7 8 9 10 10 10 9 8 9 11 11 12 12 13 15 17 17
8 10 10 10 8 6 7 11 15 17 17 17 15 13 10 9 9 8 8 8 8 8 6 6 7 7 8 8 7 7 8 9 9 8 8 7 8 8 8 8 8 7 8 8 8 8 9 9 9 9 9 9 10 10 9 9 9 8 8 7 5 4 3 4 3 3 4 4 6 8 9 10 10 10 10 10 9 8 8 10 11 12 15 17 19 19 17 15
11 11 10 9 7 8 12 16 18 17 16 14 12 11 10 8 8 7 7 8 7 3 3 5 6 5 5 5 6 8 10 10 9 9 9 9 9 9 8 8 8 8 8 8 8 8 8 8 8 9 9 9 9 9 8 7 7 6 5 4 3 3 2 3 3 5 7 9 11 11 11 12 11 9 9 9 10 10 11 13 15 17 18 17 15 13 11 10
12 10 9 7 8 12 16 18 17 16 14 13 12 11 9 7 6 5 4 5 4 4 6 8 8 7 7 8 10 10 10 10 9 10 10 9 9 8 8 8 8 8 7 7 7 7 7 7 7 8 7 7 7 7 6 5 4 4 3 3 2 3 4 5 7 9 11 12 12 11 12 12 8 7 10 11 12 12 14 16 17 15 13 12 11 10 9 8
10 8 8 9 13 16 17 17 16 15 13 12 10 8 6 5 6 6 6 7 8 10 10 9 8 9 9 9 10 10 9 9 9 8 8 7 7 7 7 7 7 7 7 7 7 8 8 8 8 8 7 7 6 5 4 4 4 3 2 3 3 6 8 9 10 11 11 11 11 11 12 10 7 10 14 14 13 13 14 13 11 10 11 11 9 7 7 7
8 9 11 14 16 16 16 17 15 14 12 9 8 8 8 9 9 9 9 10 10 9 8 8 8 9 9 9 8 8 8 8 7 7 6 6 6 7 7 6 7 7 7 7 7 8 9 9 8 7 6 6 4 4 4 4 3 3 4 6 8 11 11 10 10 11 12 13 12 12 12 10 10 13 14 12 12 11 10 9 8 9 8 7 6 6 7 7
11 14 16 17 17 16 16 16 14 13 12 10 9 9 8 7 7 8 8 9 8 7 7 8 9 8 9 8 7 7 6 6 6 6 6 7 7 8 8 8 8 7 7 8 7 6 5 6 6 4 5 4 4 4 4 4 6 7 9 11 12 12 12 13 14 14 14 14 13 14 13 11 12 13 10 9 8 8 8 9 8 7 7 7 8 8 7 8
16 17 17 17 16 15 14 14 12 11 9 8 6 5 5 6 8 9 8 8 8 7 8 8 7 7 7 6 5 6 6 6 7 8 8 8 8 8 7 7 7 6 5 5 5 4 2 3 4 5 5 5 5 7 7 8 11 11 12 13 14 15 16 17 17 15 15 13 12 13 11 10 11 9 6 7 7 8 9 8 9 10 10 11 10 9 9 10
19 17 16 15 13 12 11 10 8 6 5 4 5 6 8 9 10 8 7 7 7 7 7 6 6 5 5 5 6 6 8 8 8 7 7 7 6 6 5 5 5 5 5 4 4 5 4 5 7 7 7 7 9 10 11 13 15 15 17 17 17 16 16 15 14 13 14 12 10 9 8 7 6 5 6 9 9 9 10 11 13 13 12 13 12 9 9 9
18 15 13 12 10 10 9 6 5 4 5 6 8 9 9 9 8 6 7 7 6 5 4 5 6 6 7 9 9 8 7 6 6 6 5 4 4 4 4 5 4 4 5 5 6 7 6 8 11 12 13 14 15 16 17 18 18 17 17 16 14 14 13 13 12 12 10 8 6 5 5 4 5 7 10 11 11 12 15 15 14 13 11 11 8 6 7 9
14 12 11 10 9 9 6 4 4 6 8 9 9 8 7 7 6 5 6 5 4 5 6 8 9 8 8 7 7 6 5 5 4 3 3 3 5 7 8 9 9 10 11 12 13 14 15 17 19 19 18 18 19 18 18 17 15 13 12 12 12 13 12 10 9 7 6 5 5 5 6 7 9 12 12 13 15 15 14 12 11 9 8 8 7 7 9 8
11 11 10 8 8 7 4 4 7 8 8 7 6 6 6 5 5 4 5 5 7 9 9 9 7 7 6 5 5 4 3 2 4 8 14 19 23 25 25 24 23 22 22 21 21 21 21 21 19 17 15 15 15 14 13 12 11 11 11 11 11 9 7 5 5 6 6 7 8 8 10 12 13 14 14 14 14 11 10 9 9 8 7 8 7 6 6 5
11 10 8 7 6 5 5 8 9 7 6 5 5 5 4 4 6 7 8 9 9 8 6 5 5 6 5 4 4 2 3 9 16 23 27 27 26 25 23 22 21 19 18 17 16 15 14 14 13 13 12 12 12 11 11 11 10 10 9 8 7 6 5 6 7 9 10 10 11 12 12 12 14 15 13 13 12 11 11 10 9 8 6 6 5 4 5 5
9 6 5 6 5 5 7 9 7 5 5 5 4 4 6 8 10 10 9 8 6 5 5 5 5 5 3 3 3 6 13 21 24 21 17 13 11 11 11 11 12 12 12 12 13 12 12 12 12 11 9 9 10 9 8 7 7 7 6 5 6 7 9 10 10 12 12 12 13 12 9 10 14 15 13 12 11 11 10 8 6 5 4 3 4 6 7 7
5 4 5 6 6 7 8 7 5 4 4 5 7 9 10 10 8 6 6 5 5 5 5 5 4 3 2 4 9 17 23 22 15 9 7 8 8 10 11 12 12 12 12 12 12 11 10 9 8 7 7 7 7 6 6 7 7 7 8 9 11 11 12 12 11 12 12 13 13 11 8 12 15 12 10 9 7 6 5 4 3 3 4 6 8 9 9 8
5 6 7 8 8 8 7 5 4 5 7 9 10 10 7 5 5 5 6 6 5 5 5 5 3 2 6 13 19 23 19 12 8 8 9 10 11 13 13 12 11 10 9 9 8 8 7 7 7 7 6 6 6 7 9 9 9 10 11 12 13 13 13 12 11 12 13 13 14 11 10 13 12 8 7 6 4 4 3 3 5 6 8 8 8 7 5 4
7 7 8 8 7 7 6 6 8 9 9 9 7 5 5 5 6 6 6 5 6 5 4 3 4 9 16 20 21 17 12 9 10 10 11 11 11 11 10 9 8 7 6 7 7 7 7 7 7 7 7 8 10 11 12 11 11 11 11 13 14 14 13 12 13 13 13 13 14 11 10 10 8 6 7 5 5 5 6 7 8 8 7 5 5 5 4 5
8 7 7 8 7 8 9 9 9 7 6 5 4 5 7 7 6 5 5 6 5 4 5 8 14 19 20 19 15 13 11 11 10 10 9 10 9 8 7 7 7 6 6 6 6 7 8 8 9 9 10 12 12 12 11 10 10 11 12 14 14 12 11 11 11 12 12 12 11 8 7 6 5 6 6 6 7 7 8 8 7 6 6 7 6 6 6 5
9 9 9 10 10 9 7 6 6 5 5 6 6 7 6 6 6 5 6 6 5 8 13 18 20 19 16 14 12 11 11 9 8 9 9 8 7 7 7 7 6 7 7 7 8 9 10 11 11 11 11 11 11 12 11 10 12 13 13 13 12 10 10 10 11 11 11 8 6 4 5 5 6 7 7 7 7 7 7 6 5 5 5 5 4 4 4 5
10 9 9 8 6 5 5 5 6 6 6 6 5 5 5 5 6 7 8 11 14 18 20 19 16 14 12 11 10 10 9 8 8 9 8 8 7 7 7 7 8 8 9 10 11 12 12 13 12 10 10 11 11 11 11 13 13 13 12 11 10 10 10 11 11 10 7 5 5 6 8 8 8 7 7 7 6 6 6 5 5 5 5 5 6 6 6 6
7 6 5 5 5 5 6 6 6 5 5 5 5 7 8 10 12 14 16 18 19 18 16 13 12 11 10 9 9 8 8 8 8 8 8 8 9 9 10 10 10 11 11 12 12 11 12 12 10 10 11 12 12 12 13 13 12 11 11 11 10 10 10 10 9 7 5 6 8 9 9 8 8 8 7 7 6 7 7 7 7 7 7 7 6 6 6 6
5 5 5 6 6 6 6 5 5 6 7 9 11 13 14 16 17 17 17 16 14 12 10 9 9 9 9 8 8 7 7 7 8 8 9 9 10 10 10 11 11 12 11 11 10 11 12 12 11 12 13 12 12 12 12 11 11 11 11 9 9 9 8 7 5 5 7 10 11 10 9 8 7 7 7 6 7 7 7 7 6 6 6 6 6 6 6 6
6 6 6 7 7 7 8 9 11 13 14 15 16 16 16 15 14 13 12 10 9 9 8 8 8 8 8 8 8 8 9 9 8 9 9 9 10 11 10 11 11 10 10 10 11 12 12 12 12 11 12 12 11 11 11 11 11 11 10 9 9 7 6 6 7 9 11 11 10 8 7 6 6 6 6 6 6 6 5 6 6 7 7 6 6 6 6 6
9 10 11 13 13 15 16 16 17 17 16 16 14 13 12 11 10 10 9 9 8 9 9 8 9 8 8 8 9 9 9 9 9 9 10 10 10 10 10 11 11 10 11 12 13 13 13 12 12 11 12 12 11 11 11 10 10 10 9 8 7 7 9 11 11 12 11 9 7 5 4 5 5 5 5 6 6 6 7 7 7 6 6 5 6 6 6 6
16 17 18 18 18 18 17 16 16 14 13 11 10 10 10 9 9 10 9 9 9 9 9 9 9 8 8 9 9 10 10 10 10 11 10 10 10 10 11 11 10 11 12 13 13 13 11 11 12 12 13 12 11 11 10 9 10 9 7 6 8 11 12 12 11 10 9 7 5 6 6 7 7 7 7 6 7 7 7 6 5 5 5 6 6 6 6 6
Height
5814 5814 5815 5815 5815 5815 5815 5815 5814 5814 5814 5814 5814 5814 5814 5814 5813 5813 5812 5812 5811 5811 5811 5811 5810 5810 5809 5809 5809 5808 5808 5808 5808 5808 5807 5807 5806 5806 5806 5805 5805 5805 5804 5804 5804 5804 5804 5804 5803 5803 5802 5802 5801 5801 5800 5800 5799 5799 5798 5798 5798 5797 5796 5795 5796 5796 5795 5794 5794 5793 5793 5793 5791 5791 5790 5790 5789 5788 5787 5786 5785 5785 5785 5784 5783 5781 5780 5779
5813 5813 5814 5814 5814 5814 5814 5813 5813 5813 5813 5813 5813 5813 5812 5812 5812 5812 5811 5811 5810 5810 5810 5809 5809 5808 5808 5807 5807 5807 5807 5806 5806 5806 5805 5805 5804 5804 5804 5803 5803 5802 5802 5801 5801 5801 5801 5801 5801 5801 5800 5799 5799 5798 5798 5797 5796 5796 5795 5796 5795 5794 5793 5792 5793 5793 5792 5791 5791 5790 5791 5790 5789 5788 5788 5787 5786 5785 5784 5782 5782 5782 5782 5781 5780 5778 5777 5776
5812 5812 5812 5813 5813 5813 5812 5812 5812 5812 5812 5812 5811 5811 5811 5811 5811 5811 5810 5810 5810 5809 5809 5808 5808 5807 5807 5806 5805 5805 5804 5804 5804 5804 5803 5803 5802 5802 5801 5801 5800 5800 5799 5799 5799 5799 5798 5798 5798 5798 5797 5797 5796 5796 5795 5794 5793 5793 5793 5793 5792 5791 5790 5790 5790 5789 5789 5788 5788 5788 5788 5788 5786 5785 5785 5784 5783 5782 5780 5778 5779 5779 5779 5777 5776 5775 5774 5773
5811 5811 5811 5811 5811 5811 5811 5811 5810 5810 5811 5811 5811 5811 5811 5811 5810 5810 5810 5809 5809 5808 5808 5808 5807 5806 5805 5805 5804 5803 5803 5802 5802 5802 5801 5800 5800 5799 5799 5798 5798 5797 5797 5797 5796 5796 5796 5796 5796 5795 5795 5794 5794 5793 5792 5791 5791 5790 5791 5790 5789 5788 5788 5787 5786 5786 5786 5785 5785 5785 5785 5785 5783 5782 5782 5781 5780 5779 5776 5775 5776 5776 5774 5773 5773 5771 5770 5769
5810 5810 5810 5810 5810 5810 5809 5809 5809 5809 5810 5810 5810 5810 5810 5810 5810 5809 5809 5808 5808 5807 5807 5806 5805 5805 5804 5803 5802 5802 5801 5801 5800 5800 5799 5798 5798 5797 5797 5796 5795 5795 5795 5794 5794 5794 5794 5794 5793 5793 5792 5792 5791 5790 5789 5788 5788 5788 5788 5787 5786 5786 5785 5784 5784 5784 5783 5783 5782 5782 5782 5781 5780 5780 5779 5778 5777 5774 5772 5773 5773 5771 5770 5769 5768 5767 5766 5765
5808 5808 5808 5808 5808 5808 5808 5808 5808 5808 5808 5809 5809 5809 5808 5808 5808 5808 5807 5807 5806 5806 5805 5804 5803 5803 5802 5801 5800 5800 5799 5799 5798 5798 5797 5796 5796 5795 5795 5794 5793 5793 5793 5792 5792 5792 5792 5791 5790 5790 5790 5789 5788 5788 5786 5786 5785 5785 5784 5784 5783 5783 5783 5781 5781 5781 5780 5780 5779 5779 5778 5778 5777 5777 5776 5775 5773 5769 5769 5770 5768 5767 5766 5765 5764 5763 5762 5761
5807 5807 5807 5807 5807 5807 5807 5807 5807 5807 5807 5807 5807 5807 5807 5807 5806 5806 5805 5805 5804 5803 5803 5802 5801 5800 5799 5798 5798 5797 5797 5796 5795 5795 5795 5794 5794 5793 5792 5792 5791 5791 5790 5790 5790 5789 5789 5789 5788 5788 5787 5786 5786 5785 5784 5783 5783 5782 5781 5780 5780 5780 5780 5778 5778 5778 5777 5777 5776 5776 5775 5774 5774 5773 5773 5772 5768 5766 5767 5766 5764 5763 5762 5761 5760 5759 5758 5757
5806 5806 5807 5807 5807 5807 5807 5807 5807 5807 5807 5807 5806 5806 5806 5805 5805 5804 5803 5802 5802 5801 5800 5799 5798 5797 5796 5795 5794 5794 5793 5793 5792 5792 5792 5791 5791 5790 5790 5789 5789 5788 5788 5788 5787 5787 5786 5786 5785 5785 5784 5783 5783 5782 5781 5780 5779 5779 5778 5777 5777 5777 5776 5776 5775 5774 5774 5774 5773 5773 5772 5771 5770 5770 5770 5767 5763 5763 5764 5762 5760 5759 5758 5756 5755 5754 5754 5753
5806 5806 5806 5806 5806 5806 5806 5806 5806 5806 5806 5806 5805 5805 5804 5804 5803 5802 5801 5800 5799 5798 5797 5796 5795 5794 5793 5792 5792 5791 5790 5790 5790 5789 5789 5788 5788 5787 5787 5786 5786 5786 5786 5785 5785 5784 5783 5783 5783 5782 5781 5780 5780 5779 5778 5778 5777 5776 5775 5775 5774 5774 5773 5773 5772 5771 5771 5770 5770 5770 5769 5768 5767 5767 5766 5762 5759 5760 5760 5758 5757 5755 5754 5752 5750 5750 5750 5748
5806 5806 5806 5806 5806 5806 5806 5806 5806 5806 5805 5805 5804 5804 5803 5802 5801 5800 5799 5798 5797 5796 5795 5794 5793 5792 5791 5790 5789 5788 5788 5788 5787 5787 5786 5786 5785 5784 5784 5783 5783 5783 5783 5782 5782 5781 5781 5780 5779 5779 5778 5777 5777 5775 5775 5775 5774 5773 5772 5772 5771 5771 5770 5770 5769 5768 5767 5767 5766 5766 5766 5765 5763 5763 5761 5756 5756 5757 5755 5753 5753 5751 5750 5748 5746 5746 5745 5744
5806 5806 5806 5806 5806 5806 5806 5806 5806 5805 5805 5804 5803 5803 5802 5801 5800 5799 5798 5797 5795 5794 5793 5792 5791 5790 5789 5788 5787 5786 5786 5786 5785 5784 5784 5783 5782 5782 5781 5781 5781 5780 5780 5780 5779 5778 5777 5777 5776 5776 5775 5774 5774 5772 5772 5772 5771 5770 5770 5770 5769 5768 5768 5767 5766 5765 5764 5764 5763 5763 5763 5761 5761 5758 5754 5752 5753 5752 5750 5749 5749 5748 5746 5744 5743 5741 5740 5739
5806 5806 5806 5806 5806 5806 5806 5806 5805 5805 5804 5803 5803 5802 5801 5800 5799 5798 5796 5795 5794 5793 5792 5791 5789 5788 5787 5786 5785 5785 5784 5784 5783 5782 5781 5781 5780 5779 5779 5778 5778 5777 5777 5777 5776 5775 5774 5773 5773 5772 5772 5772 5771 5770 5769 5769 5768 5767 5767 5767 5766 5765 5765 5764 5763 5762 5761 5760 5760 5759 5759 5758 5756 5752 5749 5750 5750 5747 5745 5745 5745 5743 5741 5740 5738 5737 5735 5733
5806 5806 5806 5806 5806 5806 5805 5805 5804 5804 5803 5802 5801 5801 5800 5798 5797 5796 5795 5794 5793 5791 5790 5789 5787 5786 5785 5784 5783 5783 5782 5782 5781 5780 5779 5778 5778 5777 5776 5776 5775 5774 5774 5774 5773 5772 5771 5770 5769 5769 5769 5769 5768 5767 5767 5766 5765 5764 5764 5764 5763 5762 5762 5760 5759 5758 5757 5757 5756 5755 5755 5755 5751 5747 5747 5747 5745 5743 5741 5741 5740 5739 5737 5736 5734 5732 5730 5728
5806 5806 5806 5806 5806 5805 5805 5804 5803 5803 5802 5801 5800 5799 5798 5797 5796 5794 5793 5792 5791 5789 5788 5787 5785 5784 5783 5782 5782 5781 5780 5779 5778 5778 5777 5776 5775 5775 5774 5773 5772 5772 5771 5771 5770 5769 5768 5767 5766 5766 5765 5766 5765 5764 5764 5763 5763 5761 5761 5761 5760 5760 5759 5757 5756 5755 5754 5754 5753 5751 5752 5751 5746 5743 5743 5742 5740 5739 5737 5737 5736 5734 5733 5731 5728 5726 5724 5723
5807 5806 5806 5806 5805 5804 5804 5803 5802 5801 5800 5799 5798 5797 5796 5795 5794 5793 5791 5790 5789 5787 5786 5784 5783 5782 5781 5780 5780 5779 5778 5777 5776 5775 5775 5774 5773 5772 5772 5771 5770 5769 5768 5768 5767 5766 5765 5764 5764 5763 5763 5762 5762 5761 5761 5760 5759 5759 5758 5758 5757 5757 5756 5754 5753 5752 5751 5750 5749 5748 5748 5747 5742 5739 5739 5738 5736 5734 5733 5733 5732 5730 5728 5725 5723 5721 5719 5717
5806 5806 5805 5805 5804 5803 5803 5802 5801 5800 5799 5798 5796 5795 5794 5792 5791 5790 5789 5788 5787 5785 5784 5782 5781 5780 5779 5778 5777 5776 5776 5775 5774 5773 5772 5771 5771 5770 5769 5769 5767 5767 5766 5765 5764 5763 5763 5762 5761 5760 5760 5759 5759 5758 5757 5757 5756 5755 5755 5754 5754 5753 5753 5751 5749 5749 5748 5746 5745 5744 5744 5741 5736 5735 5736 5735 5733 5730 5729 5728 5727 5725 5723 5720 5718 5716 5713 5712
5806 5805 5805 5804 5803 5802 5801 5800 5799 5798 5797 5796 5794 5793 5792 5790 5789 5788 5787 5786 5784 5783 5782 5781 5779 5778 5777 5776 5775 5774 5773 5772 5771 5771 5770 5769 5768 5768 5767 5766 5765 5764 5763 5762 5762 5761 5760 5759 5758 5758 5757 5756 5755 5754 5754 5754 5753 5752 5751 5751 5750 5750 5749 5748 5746 5745 5744 5742 5741 5740 5739 5736 5732 5732 5732 5731 5729 5726 5724 5723 5721 5720 5717 5715 5713 5710 5708 5706
5805 5804 5804 5803 5802 5801 5800 5799 5798 5796 5795 5794 5793 5791 5790 5789 5787 5786 5785 5783 5782 5781 5780 5779 5777 5776 5775 5774 5773 5772 5771 5770 5769 5769 5768 5767 5766 5766 5765 5764 5763 5762 5761 5760 5759 5758 5757 5757 5756 5755 5755 5753 5752 5751 5751 5750 5749 5749 5748 5747 5747 5746 5745 5744 5742 5741 5740 5738 5736 5734 5733 5731 5729 5728 5728 5726 5724 5722 5719 5717 5715 5713 5711 5710 5707 5705 5703 5701
5804 5803 5803 5802 5801 5800 5799 5797 5796 5795 5793 5792 5791 5790 5788 5787 5786 5784 5783 5781 5780 5779 5778 5777 5776 5775 5774 5773 5772 5771 5770 5769 5768 5767 5766 5765 5764 5764 5763 5762 5761 5759 5759 5758 5757 5756 5755 5754 5753 5753 5751 5749 5748 5748 5748 5746 5746 5745 5744 5744 5743 5742 5742 5740 5737 5736 5735 5733 5731 5729 5729 5727 5726 5724 5722 5721 5719 5717 5714 5712 5710 5708 5706 5704 5702 5700 5698 5696
5803 5802 5801 5800 5799 5798 5797 5796 5795 5793 5792 5791 5789 5788 5786 5785 5784 5782 5781 5780 5779 5778 5776 5775 5774 5773 5772 5771 5770 5769 5768 5767 5766 5765 5765 5764 5762 5762 5761 5759 5758 5757 5756 5755 5754 5753 5752 5751 5751 5749 5747 5746 5746 5745 5744 5743 5742 5741 5740 5740 5739 5738 5738 5736 5733 5732 5731 5728 5725 5724 5724 5722 5720 5719 5717 5715 5713 5711 5709 5707 5705 5702 5700 5698 5696 5694 5692 5690
5802 5801 5800 5799 5798 5797 5795 5794 5793 5792 5790 5789 5787 5786 5784 5783 5781 5780 5778 5777 5777 5776 5775 5774 5773 5771 5770 5769 5768 5767 5766 5765 5765 5764 5763 5762 5761 5759 5758 5757 5756 5754 5753 5752 5751 5750 5749 5749 5747 5745 5744 5743 5742 5741 5740 5739 5738 5737 5736 5736 5735 5734 5733 5731 5729 5728 5726 5723 5720 5719 5718 5716 5715 5713 5711 5710 5708 5706 5704 5702 5700 5698 5695 5693 5690 5688 5686 5683
5801 5800 5799 5798 5796 5795 5794 5793 5791 5790 5789 5787 5785 5784 5782 5781 5779 5778 5776 5775 5774 5774 5773 5772 5771 5770 5769 5768 5767 5766 5765 5764 5763 5762 5761 5760 5758 5757 5756 5755 5753 5752 5750 5749 5748 5747 5746 5745 5743 5742 5741 5740 5739 5738 5736 5735 5734 5733 5732 5731 5731 5729 5728 5726 5725 5723 5721 5718 5716 5714 5713 5710 5709 5707 5705 5704 5702 5700 5698 5696 5694 5692 5690 5688 5685 5683 5680 5678
5800 5798 5797 5796 5795 5794 5792 5791 5790 5788 5787 5785 5783 5781 5780 5778 5777 5775 5774 5773 5773 5772 5771 5770 5769 5768 5767 5766 5765 5764 5763 5762 5761 5760 5759 5757 5756 5755 5753 5752 5751 5749 5748 5746 5745 5744 5743 5742 5740 5739 5737 5736 5735 5734 5733 5732 5730 5729 5728 5727 5726 5725 5723 5722 5721 5719 5716 5714 5712 5710 5707 5705 5704 5702 5699 5698 5696 5694 5692 5690 5688 5686 5684 5682 5679 5677 5675 5673
5799 5797 5796 5795 5794 5792 5791 5789 5788 5786 5785 5783 5781 5779 5778 5776 5775 5774 5773 5772 5771 5770 5769 5768 5767 5767 5765 5764 5763 5762 5761 5760 5759 5758 5756 5755 5754 5753 5751 5750 5748 5746 5745 5744 5742 5741 5740 5738 5737 5736 5734 5733 5732 5730 5729 5728 5727 5726 5724 5723 5722 5720 5719 5718 5716 5714 5711 5709 5707 5705 5702 5700 5698 5696 5694 5692 5690 5688 5686 5684 5682 5680 5678 5675 5672 5670 5669 5667
5797 5796 5794 5793 5792 5790 5789 5787 5786 5784 5782 5780 5778 5777 5775 5774 5773 5772 5771 5770 5769 5769 5768 5767 5766 5765 5764 5763 5762 5760 5759 5758 5757 5756 5754 5753 5751 5750 5749 5747 5746 5744 5743 5741 5739 5738 5737 5735 5734 5733 5731 5730 5729 5727 5726 5724 5723 5722 5720 5719 5717 5716 5714 5713 5711 5709 5706 5704 5702 5700 5696 5694 5693 5690 5688 5686 5684 5681 5680 5678 5676 5673 5671 5668 5666 5665 5663 5660
5795 5794 5792 5791 5790 5788 5787 5785 5783 5781 5779 5778 5776 5774 5773 5773 5772 5770 5770 5769 5768 5767 5766 5765 5764 5763 5762 5761 5760 5759 5757 5756 5755 5753 5752 5751 5749 5748 5746 5744 5743 5741 5740 5738 5737 5735 5734 5732 5731 5730 5728 5727 5725 5724 5723 5721 5720 5718 5717 5715 5713 5712 5710 5708 5707 5704 5702 5700 5697 5695 5692 5688 5686 5685 5682 5680 5677 5675 5673 5671 5669 5667 5665 5662 5660 5659 5657 5654
5794 5792 5790 5789 5787 5786 5785 5783 5781 5779 5777 5775 5774 5773 5772 5771 5770 5769 5768 5768 5767 5765 5764 5763 5762 5761 5760 5759 5758 5757 5755 5754 5752 5751 5750 5748 5747 5745 5743 5742 5740 5739 5737 5736 5734 5733 5731 5730 5728 5727 5725 5724 5722 5721 5719 5718 5716 5714 5713 5711 5709 5708 5706 5704 5702 5700 5697 5695 5693 5690 5687 5683 5680 5679 5676 5674 5671 5668 5667 5665 5663 5661 5659 5656 5654 5652 5651 5649
5792 5790 5788 5787 5785 5784 5782 5781 5779 5777 5775 5773 5772 5771 5770 5769 5769 5768 5767 5766 5765 5764 5763 5762 5761 5759 5758 5757 5756 5754 5753 5752 5750 5749 5747 5746 5744 5742 5741 5739 5738 5736 5734 5733 5731 5730 5728 5727 5725 5723 5722 5720 5719 5717 5715 5714 5712 5710 5709 5707 5705 5704 5702 5700 5698 5695 5693 5690 5688 5685 5681 5677 5674 5672 5670 5667 5664 5661 5661 5659 5656 5655 5653 5650 5648 5647 5645 5643
5790 5788 5786 5785 5783 5782 5780 5778 5776 5775 5773 5772 5770 5770 5769 5768 5767 5766 5766 5765 5763 5762 5761 5760 5759 5758 5756 5755 5754 5752 5751 5749 5748 5746 5745 5743 5742 5740 5738 5736 5735 5733 5732 5730 5728 5727 5725 5723 5722 5720 5718 5717 5715 5713 5712 5710 5708 5706 5705 5703 5701 5699 5697 5695 5693 5690 5688 5685 5682 5679 5675 5671 5668 5666 5663 5660 5657 5655 5655 5654 5651 5649 5648 5645 5643 5642 5639 5637
5787 5786 5784 5783 5781 5779 5778 5776 5774 5773 5771 5770 5769 5768 5768 5767 5766 5765 5765 5763 5762 5761 5760 5759 5758 5756 5754 5753 5751 5750 5749 5747 5746 5744 5742 5741 5739 5737 5735 5734 5732 5730 5728 5727 5725 5723 5722 5720 5718 5716 5715 5713 5711 5709 5708 5706 5704 5702 5700 5698 5697 5694 5692 5690 5688 5685 5682 5678 5676 5673 5669 5665 5662 5660 5657 5654 5651 5649 5649 5648 5645 5644 5642 5639 5637 5635 5633 5631
5785 5783 5782 5780 5779 5777 5775 5774 5772 5771 5770 5769 5768 5767 5767 5766 5765 5764 5763 5761 5760 5759 5758 5757 5755 5754 5753 5751 5749 5748 5746 5745 5743 5741 5740 5738 5736 5735 5733 5731 5729 5727 5725 5724 5722 5720 5718 5716 5714 5713 5711 5709 5707 5705 5703 5702 5700 5698 5696 5694 5692 5689 5687 5684 5682 5679 5676 5672 5669 5666 5664 5660 5656 5654 5652 5649 5646 5643 5644 5643 5640 5638 5636 5633 5631 5628 5626 5624
5783 5781 5780 5778 5776 5775 5774 5772 5771 5770 5769 5768 5767 5766 5766 5765 5764 5762 5761 5760 5759 5758 5756 5755 5753 5752 5750 5749 5747 5746 5744 5742 5741 5739 5737 5735 5733 5732 5730 5728 5726 5724 5722 5720 5718 5716 5715 5713 5711 5709 5707 5705 5703 5701 5699 5697 5696 5694 5691 5689 5686 5683 5681 5678 5676 5673 5670 5667 5663 5661 5658 5653 5650 5649 5646 5643 5640 5638 5638 5637 5634 5632 5630 5627 5624 5621 5619 5617
5781 5779 5778 5776 5775 5773 5772 5771 5770 5769 5768 5767 5766 5765 5764 5763 5762 5761 5760 5758 5757 5756 5755 5753 5752 5750 5748 5747 5745 5743 5742 5740 5738 5736 5734 5732 5730 5728 5726 5724 5722 5720 5719 5717 5715 5713 5711 5709 5707 5705 5703 5701 5699 5697 5695 5693 5691 5689 5686 5684 5681 5678 5674 5672 5670 5667 5664 5661 5658 5655 5652 5648 5646 5644 5641 5638 5635 5633 5632 5630 5627 5625 5623 5620 5617 5614 5612 5610
5779 5778 5776 5774 5773 5772 5771 5770 5769 5768 5767 5766 5765 5764 5763 5762 5761 5759 5758 5757 5755 5754 5753 5751 5749 5748 5746 5744 5743 5741 5739 5737 5735 5733 5731 5729 5727 5725 5723 5721 5719 5717 5715 5713 5711 5710 5708 5706 5703 5701 5699 5697 5695 5693 5690 5688 5685 5683 5681 5678 5675 5672 5669 5666 5664 5661 5659 5655 5652 5649 5646 5642 5640 5639 5636 5633 5631 5628 5626 5624 5621 5619 5616 5613 5610 5607 5604 5602
5777 5776 5774 5773 5772 5771 5770 5769 5768 5767 5766 5765 5764 5763 5762 5761 5759 5758 5757 5755 5754 5752 5751 5749 5747 5746 5744 5742 5740 5738 5736 5735 5733 5730 5728 5726 5724 5722 5720 5717 5715 5713 5711 5709 5707 5705 5704 5701 5699 5697 5694 5692 5690 5687 5685 5683 5680 5677 5675 5672 5670 5667 5664 5661 5658 5656 5653 5650 5647 5644 5641 5637 5636 5634 5631 5629 5626 5623 5621 5618 5615 5612 5610 5607 5603 5600 5597 5595
5776 5774 5773 5772 5771 5771 5770 5769 5768 5767 5766 5764 5763 5762 5761 5759 5758 5757 5755 5754 5752 5751 5749 5747 5745 5744 5742 5740 5738 5736 5734 5732 5730 5727 5725 5723 5720 5718 5716 5713 5711 5709 5707 5704 5702 5700 5699 5696 5693 5691 5689 5686 5684 5682 5679 5677 5674 5671 5669 5667 5664 5662 5659 5656 5653 5650 5648 5644 5642 5640 5636 5633 5631 5628 5626 5624 5621 5618 5615 5612 5609 5606 5603 5600 5596 5593 5591 5588
5774 5773 5773 5772 5771 5770 5769 5768 5767 5766 5765 5763 5762 5761 5759 5758 5757 5755 5754 5752 5751 5749 5747 5745 5743 5741 5739 5737 5735 5733 5731 5728 5726 5724 5721 5719 5716 5714 5712 5709 5706 5704 5702 5700 5697 5695 5693 5692 5688 5685 5683 5681 5678 5676 5674 5672 5669 5667 5664 5661 5659 5657 5654 5651 5648 5645 5643 5639 5636 5634 5632 5629 5626 5623 5621 5619 5615 5612 5609 5606 5603 5599 5597 5594 5590 5587 5584 5581
5774 5773 5772 5771 5770 5769 5768 5767 5766 5765 5764 5762 5761 5759 5758 5757 5755 5754 5752 5750 5749 5747 5745 5743 5741 5739 5737 5735 5732 5730 5728 5725 5723 5720 5717 5715 5712 5709 5707 5704 5701 5699 5697 5695 5692 5690 5688 5687 5684 5681 5678 5676 5674 5672 5669 5667 5665 5662 5660 5657 5655 5652 5649 5647 5644 5640 5638 5635 5631 5629 5626 5623 5621 5618 5615 5612 5609 5606 5602 5599 5596 5593 5590 5587 5584 5580 5577 5574
5773 5772 5772 5771 5770 5769 5767 5766 5765 5764 5762 5761 5760 5758 5757 5755 5754 5752 5750 5748 5746 5744 5743 5740 5738 5736 5734 5732 5729 5727 5724 5722 5719 5716 5713 5710 5707 5704 5701 5699 5697 5694 5692 5690 5688 5685 5683 5681 5680 5677 5674 5672 5670 5668 5665 5663 5660 5658 5656 5653 5651 5648 5645 5642 5639 5636 5633 5629 5626 5623 5620 5617 5615 5613 5610 5606 5603 5600 5596 5593 5590 5587 5584 5581 5578 5574 5571 5568
5773 5772 5771 5770 5769 5768 5767 5765 5764 5762 5761 5760 5758 5757 5755 5753 5752 5750 5748 5746 5744 5742 5740 5738 5736 5733 5731 5728 5726 5723 5720 5717 5714 5711 5708 5705 5703 5700 5698 5695 5693 5690 5688 5686 5684 5682 5679 5677 5675 5673 5670 5668 5666 5664 5661 5659 5656 5654 5652 5649 5646 5644 5640 5637 5635 5632 5628 5625 5621 5617 5614 5612 5610 5607 5604 5601 5598 5594 5591 5588 5585 5581 5578 5575 5572 5568 5565 5561
5772 5771 5770 5769 5768 5767 5765 5764 5763 5761 5760 5758 5757 5755 5753 5752 5750 5748 5746 5744 5742 5740 5737 5735 5733 5730 5728 5725 5722 5719 5716 5713 5710 5707 5705 5702 5700 5697 5695 5692 5690 5687 5685 5683 5680 5678 5675 5673 5671 5669 5666 5664 5662 5660 5657 5655 5653 5650 5648 5645 5642 5639 5636 5632 5629 5627 5624 5620 5617 5613 5609 5608 5606 5603 5599 5596 5593 5590 5586 5583 5580 5576 5573 5570 5566 5562 5558 5554
5772 5770 5769 5768 5767 5765 5764 5763 5761 5760 5758 5757 5755 5753 5752 5750 5748 5746 5744 5742 5739 5737 5735 5732 5730 5727 5724 5721 5718 5715 5712 5710 5707 5704 5702 5699 5697 5694 5692 5689 5687 5684 5682 5679 5677 5675 5672 5670 5668 5665 5663 5660 5658 5656 5654 5651 5649 5646 5643 5641 5637 5634 5631 5627 5624 5622 5619 5615 5613 5609 5605 5604 5602 5599 5595 5591 5588 5585 5581 5578 5574 5571 5567 5564 5560 5555 5550 5546
5771 5770 5768 5767 5765 5764 5763 5761 5760 5758 5757 5755 5753 5752 5750 5748 5746 5743 5741 5739 5737 5734 5732 5729 5727 5724 5721 5717 5714 5712 5709 5707 5704 5702 5699 5696 5694 5691 5689 5686 5683 5681 5679 5676 5674 5671 5669 5666 5664 5662 5659 5657 5654 5652 5650 5647 5644 5641 5639 5636 5633 5629 5626 5622 5619 5616 5614 5611 5608 5604 5601 5599 5597 5593 5590 5586 5582 5579 5575 5572 5568 5564 5560 5557 5553 5548 5543 5539
5770 5769 5767 5766 5764 5763 5762 5760 5758 5757 5755 5753 5751 5750 5748 5746 5743 5741 5739 5736 5734 5731 5729 5726 5723 5720 5717 5714 5711 5708 5706 5704 5701 5699 5696 5693 5691 5688 5686 5683 5680 5678 5676 5673 5671 5668 5665 5663 5660 5658 5656 5653 5651 5648 5646 5642 5639 5636 5634 5631 5628 5625 5621 5618 5615 5612 5609 5607 5604 5600 5597 5595 5592 5588 5584 5581 5577 5573 5569 5565 5561 5557 5553 5550 5545 5540 5535 5531
5769 5768 5766 5765 5763 5762 5760 5758 5757 5755 5753 5751 5750 5748 5745 5743 5741 5739 5736 5734 5731 5728 5726 5723 5720 5717 5714 5711 5708 5706 5704 5701 5698 5695 5693 5690 5688 5685 5683 5680 5678 5675 5672 5670 5667 5665 5662 5659 5656 5653 5650 5648 5646 5644 5641 5638 5635 5632 5629 5627 5623 5620 5617 5614 5611 5608 5605 5602 5599 5595 5592 5590 5586 5583 5579 5575 5571 5568 5564 5559 5554 5550 5546 5542 5537 5532 5527 5523
5768 5766 5765 5763 5762 5760 5759 5757 5755 5753 5751 5749 5747 5745 5743 5741 5738 5736 5733 5730 5728 5725 5722 5719 5716 5714 5711 5708 5706 5703 5701 5698 5695 5693 5690 5687 5685 5682 5680 5677 5675 5672 5669 5666 5664 5661 5658 5655 5652 5649 5646 5644 5642 5639 5636 5633 5631 5628 5625 5623 5619 5616 5613 5611 5607 5604 5601 5597 5594 5591 5588 5584 5581 5577 5573 5569 5565 5562 5558 5553 5548 5544 5540 5535 5530 5525 5520 5515
5767 5765 5763 5762 5760 5759 5757 5755 5753 5751 5749 5747 5745 5742 5740 5738 5735 5733 5730 5727 5725 5722 5719 5716 5714 5711 5709 5706 5703 5701 5698 5696 5693 5690 5687 5685 5682 5679 5677 5674 5671 5669 5666 5663 5660 5657 5655 5652 5648 5645 5643 5640 5638 5635 5632 5629 5626 5624 5621 5619 5616 5613 5610 5607 5604 5601 5598 5594 5591 5587 5583 5580 5576 5572 5568 5564 5560 5557 5552 5548 5543 5538 5534 5529 5524 5518 5512 5506
5765 5764 5762 5760 5758 5757 5755 5753 5751 5748 5746 5744 5742 5740 5737 5735 5732 5730 5727 5724 5722 5719 5716 5714 5711 5709 5706 5704 5701 5699 5696 5693 5691 5688 5685 5682 5680 5677 5674 5671 5668 5665 5662 5659 5656 5654 5651 5648 5645 5642 5639 5637 5634 5631 5628 5625 5622 5620 5617 5614 5612 5609 5606 5603 5600 5597 5593 5590 5586 5583 5578 5574 5571 5568 5563 5559 5555 5550 5546 5540 5535 5531 5526 5520 5515 5509 5502 5496
5764 5762 5760 5758 5756 5754 5752 5750 5748 5746 5744 5741 5739 5737 5734 5732 5729 5727 5724 5721 5719 5716 5714 5711 5709 5706 5704 5701 5698 5696 5693 5691 5688 5685 5682 5680 5677 5674 5671 5668 5665 5662 5659 5656 5653 5650 5647 5644 5641 5638 5636 5633 5630 5627 5625 5622 5619 5616 5613 5610 5608 5605 5602 5599 5596 5592 5588 5585 5581 5577 5573 5569 5565 5562 5557 5552 5547 5543 5538 5532 5527 5522 5517 5511 5505 5499 5493 5486
5762 5760 5758 5756 5754 5752 5750 5747 5745 5743 5741 5738 5736 5734 5731 5729 5727 5724 5722 5719 5716 5714 5712 5709 5706 5704 5701 5698 5696 5693 5690 5687 5684 5682 5679 5676 5673 5671 5668 5664 5661 5658 5655 5652 5649 5647 5644 5641 5638 5635 5632 5630 5627 5624 5621 5618 5615 5612 5609 5606 5604 5601 5598 5595 5591 5587 5583 5580 5576 5572 5568 5564 5560 5556 5551 5545 5540 5536 5530 5524 5519 5514 5508 5502 5496 5489 5483 5476
5760 5758 5756 5753 5751 5749 5747 5745 5743 5740 5738 5736 5734 5731 5729 5727 5725 5722 5720 5717 5715 5712 5709 5707 5704 5701 5698 5695 5693 5690 5687 5684 5681 5678 5675 5673 5670 5667 5664 5661 5658 5655 5652 5649 5646 5643 5640 5637 5634 5631 5629 5626 5623 5621 5618 5615 5612 5609 5605 5602 5599 5596 5593 5590 5586 5583 5579 5575 5571 5568 5564 5560 5555 5550 5545 5540 5534 5528 5522 5516 5510 5505 5499 5493 5486 5480 5472 5466
5757 5755 5753 5751 5749 5747 5744 5742 5740 5738 5736 5734 5732 5730 5727 5725 5723 5720 5718 5715 5713 5710 5707 5704 5701 5699 5696 5693 5690 5687 5684 5681 5678 5675 5672 5669 5666 5664 5661 5657 5654 5651 5648 5645 5643 5640 5637 5634 5631 5628 5625 5623 5620 5617 5614 5611 5608 5605 5602 5599 5596 5593 5590 5586 5583 5579 5575 5571 5566 5562 5558 5554 5549 5544 5539 5533 5527 5521 5514 5507 5500 5494 5488 5482 5475 5468 5462 5455